Location: Unspecified
(0.0000°N, 0.0000°E)
Time: 21:23:02
(UTC+00:00)

Kosmos-1829 - Visible Passes

Search period start: 29 April 2025 00:00
Search period end: 09 May 2025 00:00
Orbit: 1410 x 1413 km, 82.6° (Epoch: 28 April)

Date Brightness Start Highest point End Pass type
(mag) Time Alt. Az. Time Alt. Az. Time Alt. Az.
29 Apr ? 18:55:30 10° SSW 19:03:36 55° W 19:11:43 10° N visible
30 Apr ? 05:23:49 10° NNE 05:30:42 29° E 05:37:34 10° SE visible
30 Apr ? 19:41:20 10° SW 19:47:05 21° W 19:52:51 10° NW visible
01 May ? 18:27:39 10° S 18:35:59 72° W 18:44:19 10° N visible
02 May ? 04:57:12 10° NE 05:03:05 21° E 05:08:57 10° SE visible
02 May ? 19:12:40 10° SW 19:19:28 28° W 19:26:16 10° NNW visible
04 May ? 04:31:08 10° NE 04:35:28 15° E 04:39:46 10° ESE visible
04 May ? 18:44:21 10° SSW 18:51:50 37° W 18:59:21 10° NNW visible
05 May ? 05:11:10 10° NNE 05:18:56 43° E 05:26:42 10° SSE visible
05 May ? 19:32:16 10° WSW 19:35:20 12° W 19:38:24 10° WNW visible
06 May ? 18:16:15 10° SSW 18:24:14 49° W 18:32:12 10° NNW visible
07 May ? 04:44:08 10° NNE 04:51:19 32° E 04:58:30 10° SSE visible
07 May ? 19:02:31 10° SW 19:07:42 18° W 19:12:55 10° NW visible
08 May ? 05:26:26 10° N 05:34:48 82° E 05:43:11 10° S visible
